TimeCST,TemperatureF,Dew PointF,Humidity,Sea Level PressureIn,VisibilityMPH,Wind Direction,Wind SpeedMPH,Gust SpeedMPH,PrecipitationIn,Events,Conditions,WindDirDegrees,DateUTC
12:15 AM,35.6,23.0,60,30.06,5.0,West,8.1,-,N/A,,Haze,280,2012-12-02 06:15:00
12:35 AM,33.8,23.0,65,30.06,10.0,West,3.5,-,N/A,,Clear,260,2012-12-02 06:35:00
12:55 AM,32.0,21.2,64,30.06,10.0,North,-9999.0,-,N/A,,Clear,0,2012-12-02 06:55:00
1:15 AM,32.0,23.0,69,30.06,10.0,West,5.8,-,N/A,,Clear,270,2012-12-02 07:15:00
1:35 AM,32.0,21.2,64,30.06,10.0,West,4.6,-,N/A,,Clear,270,2012-12-02 07:35:00
1:55 AM,32.0,23.0,69,30.06,10.0,West,4.6,-,N/A,,Clear,280,2012-12-02 07:55:00
2:15 AM,32.0,21.2,64,30.05,10.0,West,4.6,-,N/A,,Clear,270,2012-12-02 08:15:00
2:35 AM,32.0,21.2,64,30.05,10.0,WNW,4.6,-,N/A,,Clear,300,2012-12-02 08:35:00
2:55 AM,32.0,21.2,64,30.06,10.0,West,4.6,-,N/A,,Clear,270,2012-12-02 08:55:00
3:15 AM,32.0,21.2,64,30.06,7.0,Calm,Calm,-,N/A,,Clear,0,2012-12-02 09:15:00
3:35 AM,32.0,21.2,64,30.06,10.0,Calm,Calm,-,N/A,,Clear,0,2012-12-02 09:35:00
3:55 AM,32.0,21.2,64,30.05,10.0,Calm,Calm,-,N/A,,Clear,0,2012-12-02 09:55:00
4:15 AM,30.2,21.2,69,30.05,10.0,SW,3.5,-,N/A,,Clear,230,2012-12-02 10:15:00
4:35 AM,30.2,21.2,69,30.05,7.0,SW,5.8,-,N/A,,Clear,230,2012-12-02 10:35:00
4:55 AM,30.2,21.2,69,30.05,4.0,West,3.5,-,N/A,,Haze,270,2012-12-02 10:55:00
5:15 AM,28.4,21.2,74,30.05,10.0,NW,19.6,-,N/A,,Clear,310,2012-12-02 11:15:00
5:35 AM,30.2,19.4,64,30.04,10.0,NW,19.6,-,N/A,,Clear,310,2012-12-02 11:35:00
5:55 AM,28.4,19.4,69,30.05,10.0,West,4.6,20.7,N/A,,Clear,270,2012-12-02 11:55:00
6:15 AM,30.2,19.4,64,30.05,10.0,NW,17.3,20.7,N/A,,Clear,310,2012-12-02 12:15:00
6:35 AM,28.4,19.4,69,30.05,10.0,NW,24.2,-,N/A,,Clear,310,2012-12-02 12:35:00
6:55 AM,30.2,19.4,64,30.06,10.0,North,-9999.0,-,N/A,,Clear,0,2012-12-02 12:55:00
7:15 AM,30.2,19.4,64,30.07,7.0,WSW,5.8,-,N/A,,Clear,240,2012-12-02 13:15:00
7:35 AM,33.8,21.2,60,30.07,10.0,WSW,9.2,17.3,N/A,,Clear,250,2012-12-02 13:35:00
7:55 AM,32.0,21.2,64,30.07,10.0,WSW,4.6,-,N/A,,Clear,250,2012-12-02 13:55:00
8:15 AM,33.8,21.2,60,30.07,10.0,West,5.8,-,N/A,,Clear,270,2012-12-02 14:15:00
8:35 AM,35.6,23.0,60,30.07,10.0,West,5.8,-,N/A,,Clear,270,2012-12-02 14:35:00
8:55 AM,41.0,23.0,49,30.07,10.0,WNW,10.4,23.0,N/A,,Clear,290,2012-12-02 14:55:00
9:15 AM,42.8,24.8,49,30.07,10.0,West,5.8,24.2,N/A,,Clear,270,2012-12-02 15:15:00
9:35 AM,46.4,26.6,46,30.07,10.0,West,10.4,24.2,N/A,,Clear,270,2012-12-02 15:35:00
9:55 AM,51.8,24.8,35,30.08,10.0,West,9.2,23.0,N/A,,Clear,270,2012-12-02 15:55:00
10:15 AM,55.4,26.6,33,30.08,10.0,WNW,16.1,25.3,N/A,,Clear,290,2012-12-02 16:15:00
10:35 AM,59.0,26.6,29,30.07,10.0,WSW,10.4,17.3,N/A,,Clear,250,2012-12-02 16:35:00
10:55 AM,62.6,26.6,26,30.07,10.0,West,12.7,17.3,N/A,,Clear,280,2012-12-02 16:55:00
11:15 AM,66.2,24.8,21,30.06,10.0,West,20.7,28.8,N/A,,Clear,280,2012-12-02 17:15:00
11:35 AM,68.0,24.8,20,30.05,10.0,WNW,25.3,29.9,N/A,,Clear,290,2012-12-02 17:35:00
11:55 AM,69.8,23.0,17,30.04,10.0,WNW,25.3,31.1,N/A,,Clear,290,2012-12-02 17:55:00
12:15 PM,73.4,21.2,14,30.03,10.0,West,25.3,31.1,N/A,,Clear,280,2012-12-02 18:15:00
12:35 PM,73.4,21.2,14,30.03,10.0,West,24.2,32.2,N/A,,Clear,280,2012-12-02 18:35:00
12:55 PM,73.4,21.2,14,30.01,10.0,WNW,24.2,-,N/A,,Clear,290,2012-12-02 18:55:00
1:15 PM,73.4,21.2,14,30.00,10.0,West,25.3,40.3,N/A,,Clear,270,2012-12-02 19:15:00
1:35 PM,75.2,21.2,13,30.00,10.0,West,24.2,32.2,N/A,,Clear,280,2012-12-02 19:35:00
1:55 PM,73.4,19.4,13,30.00,10.0,West,26.5,40.3,N/A,,Clear,270,2012-12-02 19:55:00
2:15 PM,73.4,19.4,13,29.99,10.0,West,25.3,33.4,N/A,,Clear,270,2012-12-02 20:15:00
2:35 PM,73.4,17.6,12,29.98,10.0,West,25.3,34.5,N/A,,Clear,270,2012-12-02 20:35:00
3:15 PM,73.4,17.6,12,29.97,10.0,WSW,25.3,28.8,N/A,,Clear,250,2012-12-02 21:15:00
3:35 PM,73.4,17.6,12,29.96,10.0,WSW,21.9,32.2,N/A,,Clear,240,2012-12-02 21:35:00
3:55 PM,73.4,15.8,11,29.96,10.0,WSW,19.6,28.8,N/A,,Clear,240,2012-12-02 21:55:00
4:15 PM,73.4,17.6,12,29.95,10.0,WSW,17.3,27.6,N/A,,Clear,240,2012-12-02 22:15:00
4:35 PM,71.6,17.6,13,29.95,10.0,WSW,15.0,25.3,N/A,,Clear,240,2012-12-02 22:35:00
4:55 PM,71.6,17.6,13,29.95,10.0,SW,13.8,18.4,N/A,,Clear,230,2012-12-02 22:55:00
5:15 PM,69.8,17.6,14,29.95,10.0,SW,10.4,-,N/A,,Clear,230,2012-12-02 23:15:00
5:35 PM,68.0,17.6,15,29.94,10.0,SW,11.5,-,N/A,,Clear,230,2012-12-02 23:35:00
5:55 PM,62.6,19.4,19,29.93,4.0,WSW,12.7,17.3,N/A,,Haze,240,2012-12-02 23:55:00
6:15 PM,60.8,19.4,20,29.93,4.0,WSW,12.7,-,N/A,,Haze,240,2012-12-03 00:15:00
6:35 PM,60.8,17.6,19,29.93,3.0,SW,15.0,-,N/A,,Haze,230,2012-12-03 00:35:00
6:55 PM,60.8,17.6,19,29.93,5.0,WSW,16.1,-,N/A,,Haze,240,2012-12-03 00:55:00
7:15 PM,59.0,17.6,20,29.92,5.0,SW,15.0,-,N/A,,Haze,230,2012-12-03 01:15:00
7:35 PM,59.0,17.6,20,29.91,7.0,SW,13.8,-,N/A,,Clear,230,2012-12-03 01:35:00
7:55 PM,60.8,14.0,16,29.91,10.0,WSW,17.3,-,N/A,,Clear,240,2012-12-03 01:55:00
8:15 PM,59.0,14.0,17,29.92,10.0,SW,15.0,20.7,N/A,,Clear,230,2012-12-03 02:15:00
8:35 PM,55.4,15.8,21,29.92,10.0,WSW,15.0,-,N/A,,Clear,250,2012-12-03 02:35:00
8:55 PM,57.2,15.8,20,29.93,10.0,SW,16.1,21.9,N/A,,Clear,230,2012-12-03 02:55:00
9:15 PM,57.2,15.8,20,29.93,10.0,WSW,16.1,23.0,N/A,,Clear,240,2012-12-03 03:15:00
9:35 PM,57.2,17.6,21,29.93,10.0,WSW,16.1,-,N/A,,Clear,240,2012-12-03 03:35:00
9:55 PM,55.4,17.6,23,29.93,10.0,West,13.8,-,N/A,,Clear,270,2012-12-03 03:55:00
10:15 PM,57.2,17.6,21,29.92,10.0,West,19.6,26.5,N/A,,Clear,270,2012-12-03 04:15:00
10:35 PM,55.4,19.4,25,29.92,10.0,West,19.6,24.2,N/A,,Clear,270,2012-12-03 04:35:00
10:55 PM,55.4,19.4,25,29.91,10.0,West,20.7,26.5,N/A,,Clear,270,2012-12-03 04:55:00
11:15 PM,57.2,17.6,21,29.91,10.0,West,21.9,25.3,N/A,,Clear,280,2012-12-03 05:15:00
11:35 PM,53.6,17.6,24,29.91,10.0,West,17.3,-,N/A,,Clear,260,2012-12-03 05:35:00
11:55 PM,53.6,17.6,24,29.91,10.0,West,18.4,24.2,N/A,,Clear,260,2012-12-03 05:55:00